Simultaneous Nadir Overpasses (SNOs) Predictions

Prediction of SNOs between AQUA and METOP-A Satellite Orbit:

Table of predicted SNOs for the next 14.0 days since TLE Epoch: 12/12/2020
Index Date (AQUA) Time (AQUA) Lat,Lon (AQUA) SZA (AQUA ) Date (METOP-A) Time (METOP-A) Lat,Lon (METOP-A) SZA (METOP-A ) Distance(km) Time Diff (sec)
1 12/13/2020 01:18:52 -76.85, -33.75 79.78 12/13/2020 01:18:22 -76.83, -33.82 79.78 2.20 30
2 12/13/2020 02:08:21 76.91, 133.66 100.30 12/13/2020 02:09:01 76.88, 133.70 100.27 2.71 40
3 12/15/2020 20:53:07 -76.87, 32.61 79.58 12/15/2020 20:52:43 -76.88, 32.71 79.56 3.21 24
4 12/15/2020 21:42:35 76.89,-159.82 100.45 12/15/2020 21:43:23 76.88,-159.95 100.44 3.42 48
5 12/18/2020 16:27:22 -76.90, 98.95 79.44 12/18/2020 16:27:05 -76.89, 99.07 79.45 3.16 17
6 12/18/2020 17:16:50 76.92, -93.50 100.59 12/18/2020 17:17:44 76.93, -93.44 100.59 1.69 54
7 12/21/2020 11:12:01 76.49, -0.83 100.14 12/21/2020 11:10:54 76.44, -3.55 100.26 70.98 67
8 12/21/2020 12:01:35 -76.89, 165.43 79.41 12/21/2020 12:01:26 -76.89, 165.41 79.40 0.50 9
9 12/21/2020 12:51:03 76.92, -27.04 100.63 12/21/2020 12:52:05 76.92, -27.12 100.63 2.08 62
10 12/24/2020 06:46:22 76.83, 64.45 100.51 12/24/2020 06:45:09 76.75, 63.93 100.49 15.40 73
11 12/24/2020 07:35:49 -76.88,-128.12 79.43 12/24/2020 07:35:48 -76.88,-128.26 79.42 3.61 1



Historial Predications of SNOs between AQUA and METOP-A
